Regional Weather Roundup
Issued by NWS

Home | Current Version | Previous Version | Text Only | Print | Product List | Glossary Off
Versions: 1 2 3 4 5 6 7 8 9 10 11 12 13 14 15 16 17 18 19 20 21 22 23 24 25 26 27 28 29 30 31 32 33 34 35 36 37 38 39 40 41 42 43 44 45 46 47 48 49 50

000
ASUS43 KOAX 241802
RWRNE

WEATHER ROUNDUP FOR NEBRASKA
NATIONAL WEATHER SERVICE OMAHA NE
100 PM CDT SAT SEP 24 2016

NOTES: SATELLITE DATA IS BEING USED TO AUGMENT CLOUD COVER ABOVE
       12000 FEET.
       "FAIR" INDICATES FEW OR NO CLOUDS BELOW 12,000 FEET WITH NO
       SIGNIFICANT WEATHER AND/OR OBSTRUCTIONS TO VISIBILITY.

  * THESE STATIONS DO NOT REPORT WEATHER SUCH AS RAIN...SNOW OR FOG.

NEZ001>004-019>022-054>056-241900-
NEBRASKA PANHANDLE

CITY           SKY/WX    TMP DP  RH WIND       PRES   REMARKS
SCOTTSBLUFF    SUNNY     66  41  40 NW9       29.98F
6HR MIN TEMP:  42; 6HR MAX TEMP:  66;

ALLIANCE       SUNNY     64  37  36 W17G29    29.97S
6HR MIN TEMP:  41; 6HR MAX TEMP:  65;

CHADRON        MOSUNNY   67  40  37 W23G29    29.92S
6HR MIN TEMP:  46; 6HR MAX TEMP:  67;

KIMBALL        SUNNY     64  37  36 W7G16     30.03S
SIDNEY         SUNNY     66  37  34 SW12      30.02S
6HR MIN TEMP:  41; 6HR MAX TEMP:  66;

$$

NEZ057>060-069>072-079>082-241900-
SOUTHWEST NEBRASKA

CITY           SKY/WX    TMP DP  RH WIND       PRES   REMARKS
NORTH PLATTE   MOSUNNY   76  44  32 W7        29.98R
6HR MIN TEMP:  52; 6HR MAX TEMP:  76;

IMPERIAL       SUNNY     69  37  30 W6        30.00S
6HR MIN TEMP:  48; 6HR MAX TEMP:  69;

LEXINGTON      CLOUDY    68  51  52 NW3       29.97F
MCCOOK         MOSUNNY   73  42  32 N13       29.97F HAZE
6HR MIN TEMP:  54; 6HR MAX TEMP:  73;

OGALLALA       SUNNY     71  38  30 NW7       29.99R
$$

NEZ005>010-023>029-035>040-094-241900-
NORTH CENTRAL NEBRASKA

CITY           SKY/WX    TMP DP  RH WIND       PRES   REMARKS
VALENTINE      PTSUNNY   69  41  36 W12G20    29.93R
6HR MIN TEMP:  56; 6HR MAX TEMP:  69;

AINSWORTH      PTSUNNY   69  47  46 W10       29.95R
BROKEN BOW     CLOUDY    66  50  56 CALM      29.96S
6HR MIN TEMP:  59; 6HR MAX TEMP:  68;

O`NEILL        PTSUNNY   70  56  61 SW9       29.93R
ORD            CLOUDY    68  57  68 S8        29.93R
6HR MIN TEMP:  67; 6HR MAX TEMP:  71; 6HR PCP: TRACE;

THEDFORD       MOSUNNY   72  42  34 W13G21    29.97R
$$

NEZ041-046>049-061>064-073>077-083>087-241900-
SOUTH CENTRAL NEBRASKA

CITY           SKY/WX    TMP DP  RH WIND       PRES   REMARKS
GRAND ISLAND   LGT RAIN  68  67  96 SE6       29.91F
6HR MIN TEMP:  68; 6HR MAX TEMP:  70; 6HR PCP:  0.16;

AURORA         RAIN      69  68  97 SW7       29.93F
HASTINGS       CLOUDY    69  67  93 VRB3      29.94F
6HR MIN TEMP:  68; 6HR MAX TEMP:  70; 6HR PCP:  0.33;

HEBRON         CLOUDY    73  66  77 S9        29.95S THUNDER
HOLDREGE       CLOUDY    67  51  56 NW5       29.96F
KEARNEY *      CLOUDY    66  54  63 NW5       29.94F
YORK           TSTM      72  68  88 SW5       29.94F
$$

NEZ011>018-030>034-042>045-241900-
NORTHEAST NEBRASKA

CITY           SKY/WX    TMP DP  RH WIND       PRES   REMARKS
NORFOLK        CLOUDY    75  68  78 S9        29.91S THUNDER
6HR MIN TEMP:  69; 6HR MAX TEMP:  75; 6HR PCP:  0.15;

ALBION         LGT RAIN  71  69  93 S13       29.92F
BLAIR          TSTM      74  70  87 S13G21    29.96S
FREMONT        CLOUDY    76  69  78 S14       29.94F
TEKAMAH        LGT RAIN  76  70  82 S14       29.93S
6HR MIN TEMP:  69; 6HR MAX TEMP:  84; 6HR PCP: TRACE;

WAYNE          CLOUDY    80  71  73 S20G26    29.91F
$$

NEZ050>053-065>068-078-088>093-241900-
SOUTHEAST NEBRASKA

CITY           SKY/WX    TMP DP  RH WIND       PRES   REMARKS
LINCOLN        LGT RAIN  75  72  90 S16       29.94F FOG
6HR MIN TEMP:  72; 6HR MAX TEMP:  81; 6HR PCP: TRACE;

OMAHA EPPLEY   TSTM      73  68  84 S20G26    29.98R VSB 3/4
6HR MIN TEMP:  72; 6HR MAX TEMP:  84; 6HR PCP:  0.04;

BEATRICE       CLOUDY    75  73  92 S8        29.96S THUNDER
FALLS CITY     MOSUNNY   86  71  60 S20G25    29.95F HX  91
6HR MIN TEMP:  69; 6HR MAX TEMP:  87;

NEBRASKA CITY  CLOUDY    83  61  47 SW14      29.95F
PLATTSMOUTH    CLOUDY    74  69  82 W5        29.96S
$$

NEZ044-045-051>053-067-241900-
OMAHA AREA

CITY           SKY/WX    TMP DP  RH WIND       PRES   REMARKS
OMAHA EPPLEY   TSTM      73  68  84 S20G26    29.98R VSB 3/4
6HR MIN TEMP:  72; 6HR MAX TEMP:  84; 6HR PCP:  0.04;

BLAIR          TSTM      74  70  87 S13G21    29.96S
FREMONT        CLOUDY    76  69  78 S14       29.94F
MILLARD        CLOUDY    73  71  92 E3        29.96S
OFFUTT AFB     TSTM      73  72  94 W24G32    29.97R VSB 1/4
PLATTSMOUTH    CLOUDY    74  69  82 W5        29.96S
WAHOO          FAIR      74  69  86 SE14G20   29.94F
$$



USA.gov is the U.S. government's official web portal to all federal, state and local government web resources and services.